Weather Roundup
Issued by NWS Chicago, IL

Home | Current Version | Previous Version | Graphics & Text | Print | Product List | Glossary On
Versions: 1 2 3 4 5 6 7 8 9 10 11 12 13 14 15 16 17 18 19 20 21 22 23 24 25 26 27 28 29 30 31 32 33 34 35 36 37 38 39 40 41 42 43 44 45 46 47 48 49 50
000
NZUS59 KLOT 230712
HRRLOT

CHICAGO AREA WEATHER ROUNDUP
NATIONAL WEATHER SERVICE CHICAGO/ROMEOVILLE IL
100 AM CST THU FEB 23 2017

NOTE: "FAIR" INDICATES FEW OR NO CLOUDS BELOW 12,000 FEET WITH NO
SIGNIFICANT WEATHER AND/OR OBSTRUCTIONS TO VISIBILITY.

* THESE STATIONS ARE NOT UNDER NWS QUALITY CONTROL. THEY ALSO MAY NOT
  REPORT WEATHER SUCH AS PRECIPITATION OR FOG.

ILZ005-006-012>014-019>023-230800-
NORTHEAST ILLINOIS

CITY           SKY/WX    TMP DP  RH WIND       PRES   REMARKS
OHARE          PTCLDY    57  50  77 W12       29.63R
MIDWAY         CLEAR     58  51  78 SW16G22   29.65R
AURORA         PTCLDY    53  50  89 SW10      29.66R
LANSING*       CLEAR     55  54  99 SW9       29.67R
JOLIET*        CLEAR     58  54  85 SW15      29.67R
WAUKEGAN       CLEAR     55  48  77 VRB7      29.60R
DUPAGE AIRPORT PTCLDY    53  49  86 W12       29.64R
WHEELING       CLEAR     55  50  83 SW7       29.64R
KANKAKEE*      CLEAR     50  50  98 SW8       29.69R
MORRIS*        CLEAR     54  51  90 SW9       29.68R
LEWIS AIRPORT* CLEAR     55  54  96 SW13      29.67R
NORTHERLY ISL    N/A     59  51  75 SW12        N/A
$$

WIZ051-052-058>065-066-070>072-230800-
SOUTHEAST WISCONSIN

CITY           SKY/WX    TMP DP  RH WIND       PRES   REMARKS
MILWAUKEE      CLEAR     57  45  64 W13       29.60R
KENOSHA*       CLEAR     53  48  83 W14       29.60R
RACINE*        PTCLDY    55  47  74 W12       29.60R
WAUKESHA       CLEAR     50  43  76 W12       29.62R
WEST BEND      CLEAR     52  41  66 W10G18    29.59R
$$

INZ001>003-010>013-019-020-230800-
NORTHWEST INDIANA

CITY           SKY/WX    TMP DP  RH WIND       PRES   REMARKS
GARY*          CLEAR     58  53  84 SW6       29.67R
MICHIGAN CITY* NOT AVBL
RENSSELAER*    NOT AVBL
VALPARAISO     CLEAR     56  53  90 SW9       29.68R
$$

LMZ740>746-230800-
SOUTHERN LAKE MICHIGAN

STATION/POSITION TIME  SKY/WX   TEMP WIND        PRES    VSBY
                                AIR  DIR/SP/G
                 (UTC)          (F)  (DEG/KT/KT) (MB)    (MI)
HARRISON CRIB    0640            60  230/ 17/ 22   N/A
BURNHAM HARBOR   0700            58  210/  9/ 13   N/A
CALUMET HARBOR   0648            57  210/  7/ 13 1003.7R
BURNS HARBOR     0640            58  230/ 17/ 22 1004.4R
MICHIGAN CITY    0640            58  190/ 19/ 28   N/A
$$

ABBREVIATIONS USED IN REMARKS
   TC - TEMPERATURE IN CELSIUS
  WCI - WIND CHILL INDEX
   HX - HEAT INDEX
  VSB - VISIBILITY
$$



USA.gov is the U.S. government's official web portal to all federal, state and local government web resources and services.